Weather History for Windsor Locks, CT

Change the Weather History Date:

Wednesday, March 27, 2013

  Actual Average Record
Temperature  
Mean Temperature 40 °F 42 °F  
Max Temperature 55 °F 52 °F 82 °F (1998)
Min Temperature 25 °F 31 °F 16 °F (1960)
Degree Days  
Heating Degree Days 25 23  
Month to date heating degree days 777 754  
Since 1 July heating degree days 4929 5192  
Cooling Degree Days 0 0  
Month to date cooling degree days 0 0  
Year to date cooling degree days 0 0  
Moisture  
Dew Point 22 °F    
Average Humidity 52    
Maximum Humidity 78    
Minimum Humidity 26    
Precipitation  
Precipitation 0.00 in 0.13 in 1.41 in (1978)
Month to date precipitation 2.38 3.14  
Year to date precipitation 7.89 9.26  
Snow  
Snow 0.00 in 0.10 in 5.00 in (1959)
Month to date snowfall 9.8 5.9  
Since 1 July snowfall 56.9 38.6  
Snow Depth 0.00 in    
Sea Level Pressure  
Sea Level Pressure 29.84 in    
Wind  
Wind Speed 8 mph (NW)    
Max Wind Speed 25 mph    
Max Gust Speed 33 mph    
Visibility 10 miles    
Events      
T = Trace of Precipitation, MM = Missing Value Source: NWS Daily Summary

Daily Weather History Graph

Daily Weather History Graph

Search for Another Location

Airport:

Trip Planner

Search our weather history database for the weather conditions in past years. The results will help you decide how hot, cold, wet, or windy it might be!

Date:

Astronomy

Mar. 27, 2013 Rise Set
Actual Time 6:41 AM EDT 7:11 PM EDT
Civil Twilight 6:13 AM EDT 7:39 PM EDT
Nautical Twilight 5:40 AM EDT 8:12 PM EDT
Astronomical Twilight 5:06 AM EDT 8:46 PM EDT
Moon 7:52 PM EDT (3/27) 6:30 AM EDT (3/27)
Length of Visible Light 13h 25m
Length of Day
12h 29m
Full, 100% of the Moon is Illuminated
Mar 27
Full
Apr 3
Last Quarter
Apr 10
New
Apr 18
First Quarter
Apr 25
Full

Hourly Weather History & Observations

Time (EDT) Temp. Windchill Dew Point Humidity Pressure Visibility Wind Dir Wind Speed Gust Speed Precip Events Conditions
12:51 AM 33.1 °F 28.7 °F 19.0 °F 56% 29.82 in 10.0 mi West 4.6 mph - N/A   Clear
1:51 AM 33.1 °F 27.7 °F 19.0 °F 56% 29.82 in 10.0 mi West 5.8 mph - N/A   Clear
2:51 AM 28.9 °F - 19.0 °F 67% 29.81 in 10.0 mi Calm Calm - N/A   Clear
3:51 AM 28.9 °F - 19.0 °F 67% 29.81 in 10.0 mi Calm Calm - N/A   Clear
4:51 AM 27.0 °F - 19.0 °F 72% 29.81 in 10.0 mi Calm Calm - N/A   Clear
5:51 AM 27.0 °F - 19.9 °F 75% 29.82 in 10.0 mi Calm Calm - N/A   Clear
6:51 AM 27.0 °F - 19.9 °F 75% 29.84 in 10.0 mi Calm Calm - N/A   Partly Cloudy
7:51 AM 30.9 °F 27.5 °F 24.1 °F 76% 29.86 in 10.0 mi SSE 3.5 mph - N/A   Partly Cloudy
8:51 AM 41.0 °F - 24.1 °F 51% 29.86 in 10.0 mi Calm Calm - N/A   Scattered Clouds
9:51 AM 45.0 °F - 25.0 °F 46% 29.85 in 10.0 mi Calm Calm - N/A   Scattered Clouds
10:51 AM 48.9 °F - 23.0 °F 36% 29.83 in 10.0 mi Variable 6.9 mph - N/A   Scattered Clouds
11:51 AM 52.0 °F - 21.9 °F 31% 29.81 in 10.0 mi WNW 12.7 mph 24.2 mph N/A   Scattered Clouds
12:51 PM 52.0 °F - 21.0 °F 30% 29.81 in 10.0 mi North 16.1 mph 24.2 mph N/A   Mostly Cloudy
1:51 PM 52.0 °F - 21.0 °F 30% 29.80 in 10.0 mi NW 15.0 mph 21.9 mph N/A   Mostly Cloudy
2:51 PM 51.1 °F - 19.0 °F 28% 29.80 in 10.0 mi NNW 15.0 mph 24.2 mph N/A   Mostly Cloudy
3:51 PM 54.0 °F - 19.0 °F 25% 29.80 in 10.0 mi NW 23.0 mph 32.2 mph N/A   Mostly Cloudy
4:51 PM 53.1 °F - 19.0 °F 26% 29.81 in 10.0 mi WNW 17.3 mph 26.5 mph N/A   Mostly Cloudy
5:51 PM 50.0 °F - 21.9 °F 33% 29.83 in 10.0 mi NNW 15.0 mph 23.0 mph N/A   Mostly Cloudy
6:51 PM 46.0 °F 40.2 °F 25.0 °F 44% 29.85 in 10.0 mi NW 12.7 mph 24.2 mph N/A   Mostly Cloudy
7:51 PM 45.0 °F 40.6 °F 26.1 °F 48% 29.87 in 10.0 mi NW 8.1 mph - N/A   Mostly Cloudy
8:51 PM 45.0 °F 40.1 °F 24.1 °F 44% 29.89 in 10.0 mi NW 9.2 mph 19.6 mph N/A   Mostly Cloudy
9:51 PM 44.1 °F 37.1 °F 26.1 °F 49% 29.90 in 10.0 mi NW 15.0 mph 19.6 mph N/A   Mostly Cloudy
10:51 PM 43.0 °F 37.2 °F 27.0 °F 53% 29.90 in 10.0 mi NW 10.4 mph - N/A   Mostly Cloudy
11:51 PM 39.9 °F 35.8 °F 27.0 °F 60% 29.90 in 10.0 mi NW 5.8 mph - N/A   Partly Cloudy